Weather History for K1R7 - December, 2013

Change the Weather History Date:

Tuesday, December 10, 2013

  Actual Average (KMCB) Record (KMCB)
Temperature  
Mean Temperature 39 °F -  
Max Temperature 46 °F 62 °F 79 °F (2007)
Min Temperature 30 °F 38 °F 19 °F (1978)
Degree Days  
Heating Degree Days 26    
Moisture  
Dew Point 33 °F    
Average Humidity 88    
Maximum Humidity 100    
Minimum Humidity 57    
Precipitation  
Precipitation 0.29 in - - ()
Sea Level Pressure  
Sea Level Pressure 30.34 in    
Wind  
Wind Speed 8 mph (NNW)    
Max Wind Speed 15 mph    
Max Gust Speed 29 mph    
Visibility 9 miles    
Events Rain    
Averages and records for this station are not official NWS values.
T = Trace of Precipitation, MM = Missing Value Source: NWS Daily Summary

Daily Weather History Graph

Daily Weather History Graph

Search for Another Location

Airport or City:

Trip Planner

Search our weather history database for the weather conditions in past years. The results will help you decide how hot, cold, wet, or windy it might be!

Date:

Astronomy

Dec. 10, 2013 Rise Set
Actual Time 6:50 AM CST 4:58 PM CST
Civil Twilight 6:23 AM CST 5:25 PM CST
Nautical Twilight 5:53 AM CST 5:55 PM CST
Astronomical Twilight 5:23 AM CST 6:25 PM CST
Moon 12:41 PM CST (12/10) 12:29 AM CST (12/10)
Length of Visible Light 11h 01m
Length of Day
10h 08m
Waxing Gibbous, 62% of the Moon is Illuminated
Dec 10
Waxing Gibbous
Dec 17
Full
Dec 25
Last Quarter
Jan 1
New
Jan 7
First Quarter

Hourly Weather History & Observations

Time (CST) Temp. Windchill Dew Point Humidity Pressure Visibility Wind Dir Wind Speed Gust Speed Precip Events Conditions
12:15 AM 37.4 °F 30.8 °F 37.4 °F 100% 30.19 in 1.2 mi NW 9.2 mph - 0.19 in Rain Heavy Rain
12:35 AM 37.4 °F 29.8 °F 37.4 °F 100% 30.19 in 1.5 mi NW 11.5 mph - 0.27 in   Overcast
12:55 AM 37.4 °F 30.8 °F 37.4 °F 100% 30.19 in 1.2 mi NW 9.2 mph - 0.29 in   Overcast
1:15 AM 35.6 °F 30.7 °F 35.6 °F 100% 30.20 in 3.0 mi NW 5.8 mph - N/A   Overcast
1:35 AM 35.6 °F 29.2 °F 35.6 °F 100% 30.20 in 10.0 mi NW 8.1 mph - N/A   Overcast
1:55 AM 35.6 °F 29.2 °F 35.6 °F 100% 30.22 in 10.0 mi NW 8.1 mph - N/A   Overcast
2:15 AM 35.6 °F 28.6 °F 35.6 °F 100% 30.22 in 10.0 mi NW 9.2 mph - N/A   Overcast
2:35 AM 35.6 °F 28.0 °F 35.6 °F 100% 30.24 in 10.0 mi NNW 10.4 mph - N/A   Overcast
2:55 AM 35.6 °F 28.0 °F 35.6 °F 100% 30.24 in 4.0 mi NW 10.4 mph - N/A   Overcast
3:15 AM 35.6 °F 30.7 °F 35.6 °F 100% 30.24 in 5.0 mi NW 5.8 mph - N/A   Overcast
3:35 AM 35.6 °F 28.6 °F 35.6 °F 100% 30.23 in 9.0 mi NW 9.2 mph - N/A   Overcast
4:35 AM 35.6 °F 29.2 °F 35.6 °F 100% 30.25 in 3.0 mi NW 8.1 mph - N/A   Overcast
4:55 AM 35.6 °F 27.5 °F 35.6 °F 100% 30.28 in 10.0 mi NW 11.5 mph 21.9 mph N/A   Overcast
5:15 AM 33.8 °F 25.8 °F 33.8 °F 100% 30.28 in 10.0 mi NW 10.4 mph 20.7 mph N/A   Overcast
5:35 AM 33.8 °F 25.3 °F 33.8 °F 100% 30.29 in 10.0 mi NW 11.5 mph 23.0 mph N/A   Overcast
5:55 AM 33.8 °F 23.9 °F 33.8 °F 100% 30.31 in 10.0 mi NW 15.0 mph 20.7 mph N/A   Overcast
6:15 AM 33.8 °F 26.4 °F 33.8 °F 100% 30.32 in 10.0 mi NW 9.2 mph 16.1 mph N/A   Overcast
6:35 AM 33.8 °F 25.3 °F 33.8 °F 100% 30.34 in 10.0 mi NW 11.5 mph - N/A   Overcast
6:55 AM 33.8 °F 23.9 °F 32.0 °F 93% 30.35 in 10.0 mi NNW 15.0 mph 24.2 mph N/A   Overcast
7:15 AM 33.8 °F 23.9 °F 32.0 °F 93% 30.36 in 10.0 mi NNW 15.0 mph 28.8 mph N/A   Overcast
7:35 AM 33.8 °F 25.8 °F 32.0 °F 93% 30.38 in 10.0 mi NW 10.4 mph 20.7 mph N/A   Overcast
7:55 AM 33.8 °F 25.8 °F 32.0 °F 93% 30.39 in 10.0 mi NNW 10.4 mph - N/A   Overcast
8:15 AM 33.8 °F 24.3 °F 32.0 °F 93% 30.39 in 10.0 mi NNW 13.8 mph 23.0 mph N/A   Overcast
8:35 AM 33.8 °F 25.3 °F 32.0 °F 93% 30.40 in 10.0 mi NNW 11.5 mph 19.6 mph N/A   Overcast
8:55 AM 33.8 °F 24.8 °F 32.0 °F 93% 30.40 in 10.0 mi NNW 12.7 mph - N/A   Overcast
9:15 AM 33.8 °F 25.8 °F 32.0 °F 93% 30.40 in 10.0 mi North 10.4 mph - N/A   Overcast
9:35 AM 33.8 °F 25.8 °F 32.0 °F 93% 30.40 in 10.0 mi North 10.4 mph - N/A   Overcast
9:55 AM 33.8 °F 27.0 °F 32.0 °F 93% 30.40 in 10.0 mi North 8.1 mph - N/A   Overcast
10:15 AM 35.6 °F 29.2 °F 32.0 °F 87% 30.40 in 10.0 mi North 8.1 mph - N/A   Mostly Cloudy
10:35 AM 35.6 °F 29.2 °F 32.0 °F 87% 30.40 in 10.0 mi North 8.1 mph - N/A   Scattered Clouds
10:55 AM 37.4 °F 30.8 °F 32.0 °F 81% 30.41 in 10.0 mi North 9.2 mph - N/A   Scattered Clouds
11:15 AM 37.4 °F 30.8 °F 33.8 °F 87% 30.40 in 10.0 mi NNW 9.2 mph - N/A   Partly Cloudy
11:35 AM 39.2 °F 33.0 °F 32.0 °F 75% 30.40 in 10.0 mi NNW 9.2 mph - N/A   Clear
11:55 AM 41.0 °F 35.2 °F 32.0 °F 70% 30.38 in 10.0 mi North 9.2 mph 16.1 mph N/A   Clear
12:15 PM 42.8 °F 36.6 °F 32.0 °F 66% 30.37 in 10.0 mi NNE 11.5 mph - N/A   Clear
12:35 PM 42.8 °F 37.5 °F 33.8 °F 70% 30.36 in 10.0 mi North 9.2 mph 16.1 mph N/A   Clear
12:55 PM 44.6 °F 39.7 °F 32.0 °F 61% 30.36 in 10.0 mi NNE 9.2 mph - N/A   Clear
1:15 PM 44.6 °F 39.7 °F 32.0 °F 61% 30.35 in 10.0 mi North 9.2 mph - N/A   Clear
1:35 PM 44.6 °F 39.2 °F 33.8 °F 66% 30.34 in 8.0 mi NNW 10.4 mph - N/A   Clear
1:55 PM 44.6 °F 38.4 °F 32.0 °F 61% 30.34 in 10.0 mi North 12.7 mph 17.3 mph N/A   Clear
2:15 PM 46.4 °F 41.9 °F 33.8 °F 62% 30.34 in 10.0 mi North 9.2 mph - N/A   Clear
2:35 PM 46.4 °F 42.4 °F 33.8 °F 62% 30.33 in 10.0 mi North 8.1 mph - N/A   Clear
2:55 PM 46.4 °F 42.4 °F 32.0 °F 57% 30.33 in 10.0 mi NNE 8.1 mph 16.1 mph N/A   Clear
3:15 PM 44.6 °F 39.2 °F 32.0 °F 61% 30.34 in 10.0 mi North 10.4 mph - N/A   Clear
3:35 PM 44.6 °F 39.2 °F 32.0 °F 61% 30.34 in 10.0 mi North 10.4 mph - N/A   Clear
3:55 PM 44.6 °F 39.7 °F 32.0 °F 61% 30.34 in 10.0 mi North 9.2 mph - N/A   Clear
4:15 PM 44.6 °F 40.7 °F 32.0 °F 61% 30.34 in 10.0 mi NNE 6.9 mph - N/A   Clear
4:35 PM 42.8 °F 39.3 °F 32.0 °F 66% 30.35 in 10.0 mi North 5.8 mph - N/A   Clear
4:55 PM 42.8 °F - 32.0 °F 66% 30.35 in 10.0 mi Calm Calm - N/A   Clear
5:15 PM 39.2 °F - 33.8 °F 81% 30.36 in 10.0 mi Calm Calm - N/A   Clear
5:35 PM 37.4 °F - 33.8 °F 87% 30.36 in 10.0 mi Calm Calm - N/A   Clear
5:55 PM 35.6 °F - 33.8 °F 93% 30.36 in 5.0 mi Calm Calm - N/A   Clear
6:15 PM 35.6 °F - 33.8 °F 93% 30.36 in 10.0 mi Calm Calm - N/A   Clear
6:35 PM 35.6 °F - 33.8 °F 93% 30.36 in 10.0 mi Calm Calm - N/A   Clear
6:55 PM 35.6 °F - 33.8 °F 93% 30.36 in 10.0 mi Calm Calm - N/A   Clear
7:15 PM 35.6 °F - 32.0 °F 87% 30.36 in 10.0 mi Calm Calm - N/A   Clear
7:35 PM 35.6 °F - 32.0 °F 87% 30.36 in 10.0 mi Calm Calm - N/A   Clear
7:55 PM 33.8 °F - 32.0 °F 93% 30.36 in 10.0 mi Calm Calm - N/A   Clear
8:15 PM 32.0 °F - 32.0 °F 100% 30.36 in 10.0 mi Calm Calm - N/A   Clear
8:35 PM 32.0 °F - 32.0 °F 100% 30.37 in 9.0 mi Calm Calm - N/A   Clear
8:55 PM 32.0 °F - 32.0 °F 100% 30.37 in 10.0 mi Calm Calm - N/A   Clear
9:15 PM 32.0 °F - 32.0 °F 100% 30.37 in 9.0 mi Calm Calm - N/A   Clear
9:35 PM 32.0 °F - 32.0 °F 100% 30.37 in 10.0 mi Calm Calm - N/A   Clear
9:55 PM 32.0 °F - 32.0 °F 100% 30.37 in 8.0 mi Calm Calm - N/A   Clear
10:15 PM 32.0 °F - 32.0 °F 100% 30.37 in 10.0 mi Calm Calm - N/A   Clear
10:35 PM 32.0 °F - 32.0 °F 100% 30.38 in 10.0 mi Calm Calm - N/A   Clear
10:55 PM 32.0 °F - 32.0 °F 100% 30.38 in 9.0 mi Calm Calm - N/A   Clear
11:15 PM 32.0 °F - 32.0 °F 100% 30.38 in 10.0 mi Calm Calm - N/A   Clear
11:35 PM 32.0 °F - 32.0 °F 100% 30.38 in 9.0 mi Calm Calm - N/A   Clear
11:55 PM 30.2 °F - 30.2 °F 100% 30.38 in 6.0 mi Calm Calm - N/A   Clear